Regional Weather Roundup
Issued by NWS

Home | Current Version | Previous Version | Text Only | Print | Product List | Glossary On
Versions: 1 2 3 4 5 6 7 8 9 10 11 12 13 14 15 16 17 18 19 20 21 22 23 24 25 26 27 28 29 30 31 32 33 34 35 36 37 38 39 40 41 42 43 44 45 46 47 48 49 50
000
ASUS43 KMPX 010801
RWRMN
WEATHER ROUNDUP FOR MINNESOTA
NATIONAL WEATHER SERVICE TWIN CITIES/CHANHASSEN MN
300 AM CDT FRI AUG 01 2014


NOTE: "FAIR" INDICATES FEW OR NO CLOUDS BELOW 12,000 FEET WITH NO
SIGNIFICANT WEATHER AND/OR OBSTRUCTIONS TO VISIBILITY. N/A MEANS
CURRENT SKY AND/OR WEATHER CONDITIONS ARE NOT AVAILABLE.

MNZ060>063-068>070-010900-
   Twin Cities Metro

CITY           SKY/WX    TMP DP  RH WIND       PRES   REMARKS
TWIN CITIES    CLEAR     68  60  75 S3        30.02R
ST PAUL        CLEAR     65  62  90 CALM      30.01S
CRYSTAL        CLEAR     65  57  75 CALM      30.00S
BLAINE         CLEAR     64  61  88 CALM      30.01S
LAKEVILLE      CLEAR     63  57  82 W3        30.02F
EDEN PRAIRIE   CLEAR     63  59  87 SW3       30.01S
SOUTH ST PAUL  CLEAR     67  58  72 CALM      30.01S
LAKE ELMO      FAIR      59  57  94 CALM      30.02S
$$
MNZ001>005-007-008-013>017-022>024-027-028-010900-
   Northwest Minnesota

CITY           SKY/WX    TMP DP  RH WIND       PRES   REMARKS
BEMIDJI        CLEAR     56  55  97 CALM      30.02F
HALLOCK        CLEAR     59  57  94 CALM      30.02S
ROSEAU         CLEAR     59  54  82 W5        30.02R
WARROAD        CLEAR     57  54  88 CALM      30.02R
THIEF RVR FALL   N/A     61  59  94 CALM      30.03S VSB 3/4
CROOKSTON      PTCLDY    64  63  94 CALM      30.03S
FOSSTON        CLEAR     57  55  94 CALM      30.04S FOG
DETROIT LAKES  CLEAR     63  61  94 CALM      30.05S
MOORHEAD       CLEAR     64  63  94 CALM      30.03S
PARK RAPIDS    CLEAR     58  56  93 CALM      30.03F
$$
MNZ006-009>011-018-025>026-010900-
   North Central Minnesota

CITY           SKY/WX    TMP DP  RH WIND       PRES   REMARKS
BAUDETTE       CLEAR     58  56  93 CALM      30.01S
FLAG ISLAND    CLEAR     66  63  88 CALM      30.00R
INTL FALLS     CLEAR     48  47  96 CALM      30.01S
WASKISH        CLEAR     55  55 100 CALM      30.01S
BIG FORK       CLEAR     54  52  94 CALM      30.03S
LONGVILLE      CLEAR     55  55 100 CALM      30.03R FOG
GRAND RAPIDS     N/A     55  54  94 CALM      30.03R VSB 1/2
CRANE LAKE     CLEAR     46  46 100 CALM      30.03S FOG
ORR            CLEAR     48  46  93 CALM      30.00S
COOK           CLEAR     50  48  93 CALM      30.02S FOG
$$
MNZ012-019>021-037-010900-
   Northeast Minnesota

CITY           SKY/WX    TMP DP  RH WIND       PRES   REMARKS
DULUTH         PTCLDY    56  52  86 CALM      30.01F
ELY            CLEAR     48  46  93 CALM      30.02S
HIBBING        FOG       49  47  93 NW3       30.02S VSB 1/2
EVELETH          N/A     50  48  93 CALM      30.03S FOG
DULUTH HARBOR  PTCLDY    63  61  94 CALM      29.99F
TWO HARBORS    CLEAR     52  46  82 NW3       29.99S
SILVER BAY     CLEAR     46  46 100 CALM      29.99S
GRAND MARAIS     N/A     53  50  89 CALM      30.00R
G MARAIS ARPRT CLEAR     52  46  82 E3        30.04R
$$
MNZ029>031-032-039>041-046>048-054>057-064-010900-
   West Central Minnesota

CITY           SKY/WX    TMP DP  RH WIND       PRES   REMARKS
FERGUS FALLS   CLEAR     64  61  88 CALM      30.03S
WHEATON        CLEAR     59  57  94 CALM      30.05S
MORRIS         CLEAR     57  57 100 CALM      30.04R FOG
ALEXANDRIA     CLEAR     63  61  93 W3        30.05F
ELBOW LAKE     FAIR      64  60  85 SW3       30.04S
WADENA         CLEAR     57  55  94 CALM      30.03F FOG
GLENWOOD       CLEAR     63  59  88 CALM      30.04F
APPLETON       CLEAR     59  55  88 CALM      30.03S
BENSON         FOG       55  55 100 CALM      30.04S VSB 1/4
ORTONVILLE     CLEAR     63  55  77 W5        30.04S
MADISON        CLEAR     61  57  88 CALM      30.04S
WILLMAR        FAIR      61  55  82 CALM      30.05S
$$
MNZ033>034-036-042>043-049>051-058-059-010900-
   Central Minnesota

CITY           SKY/WX    TMP DP  RH WIND       PRES   REMARKS
ST CLOUD       CLEAR     63  59  87 CALM      30.01S
SAUK CENTRE    FAIR      58  57  96 CALM      30.04S
PAYNESVILLE    CLEAR     55  55  99 SW5       30.04S FOG
AITKIN         HAZE      55  52  88 CALM      30.01S VSB 3/4
PINE RIVER     CLEAR     55  54  94 CALM      30.06S FOG
BRAINERD       PTCLDY    58  57  97 CALM      30.03S FOG
STAPLES        CLEAR     59  57  94 W1        30.03F
LONG PRAIRIE   FAIR      57  57 100 CALM      30.04S
LITTLE FALLS   CLEAR     55  55 100 CALM      30.03S FOG
LITCHFIELD       N/A     64  61  88 W3        30.04S
BUFFALO        CLEAR     64  59  82 CALM      30.03S
MAPLE LAKE     CLEAR     64  60  88 CALM      30.03S
$$
MNZ037-044-045-052-053-010900-
   East Central Minnesota

CITY           SKY/WX    TMP DP  RH WIND       PRES   REMARKS
PRINCETON      CLEAR     59  57  94 CALM      30.02R
MORA           CLEAR     59  55  88 CALM      30.02S
CAMBRIDGE      CLEAR     64  55  72 CALM      29.99S
RUSH CITY      MOCLDY    60  58  94 CALM      30.01S
MOOSE LAKE     FOG       55  54  94 CALM      29.99S VSB 1/2
HINCKLEY       FAIR      57  57 100 CALM      30.00S
CLOQUET        CLEAR     55  54  94 NW6       30.01S
MCGREGOR       CLEAR     54  52  94 CALM      30.02S
$$
MNZ071>073-080-081-089-090-097-098-010900-
   Southwest Minnesota

CITY           SKY/WX    TMP DP  RH WIND       PRES   REMARKS
MONTEVIDEO     CLEAR     63  55  77 NW6       30.05S
GRANITE FALLS  CLEAR     57  55  94 SW3       30.06S
CANBY          CLEAR     60  56  88 SW5       30.06S
MARSHALL       CLEAR     59  54  82 W5        30.04S
REDWOOD FALLS  CLEAR     61  56  83 CALM      30.04S
OLIVIA         CLEAR     59  55  88 CALM      30.03F
PIPESTONE      CLEAR     59  55  88 CALM      30.08S
WINDOM         CLEAR     55  54  94 CALM      30.07S
WORTHINGTON    CLEAR     59  55  88 S3        30.08S
JACKSON        CLEAR     59  55  88 SW3       30.07S
TRACY          CLEAR     62  57  82 SW5       30.06S
SLAYTON        CLEAR     57  55  94 CALM      30.08S
$$
MNZ065>067-074>077-082>085-091>093-010900-
   South Central Minnesota

CITY           SKY/WX    TMP DP  RH WIND       PRES   REMARKS
MANKATO        CLEAR     61  54  77 S3        30.04S
NEW ULM        CLEAR     59  57  94 CALM      30.04S
ST JAMES       CLEAR     57  55  94 CALM      30.06S
FAIRMONT       CLEAR     61  54  77 CALM      30.06S
GLENCOE        CLEAR     64  58  78 SW3       30.03S
FARIBAULT      CLEAR     61  54  77 CALM      30.04S
OWATONNA       CLEAR     57  54  88 CALM      30.05S
WASECA         CLEAR     54  50  87 CALM      30.07S
ALBERT LEA     CLEAR     61  57  88 CALM      30.06S
$$
MNZ078>079-086>088-094>096-010900-
   Southeast Minnesota

CITY           SKY/WX    TMP DP  RH WIND       PRES   REMARKS
ROCHESTER      CLEAR     60  55  83 SW7       30.07R
RED WING       CLEAR     59  57  94 CALM      30.02R
STANTON        CLEAR     60  56  87 S3        30.02S
DODGE CENTER   CLEAR     57  55  94 SW7       30.06R
WINONA         CLEAR     59  57  94 CALM      30.03R
AUSTIN         CLEAR     57  55  94 CALM      30.06S
PRESTON        CLEAR     61  58  89 SW5       30.06S
$$
ABBREVIATIONS USED IN REMARKS
   TC - TEMPERATURES IN CELSIUS
  WCI - WIND CHILL INDEX
   HX - HEAT INDEX
  VSB - VISIBILITY
$$


USA.gov is the U.S. government's official web portal to all federal, state and local government web resources and services.